Regional Weather Roundup
Issued by NWS Wakefield, VA

Home | Current Version | Previous Version | Text Only | Print | Product List | Glossary Off
Versions: 1 2 3 4 5 6 7 8 9 10 11 12 13 14 15 16 17 18 19 20 21 22 23 24 25 26 27 28

000
ASUS41 KAKQ 190515
RWRAKQ

REGIONAL WEATHER ROUNDUP
NATIONAL WEATHER SERVICE WAKEFIELD VA
100 AM EDT SAT AUG 19 2017

Note: "fair" indicates few or no clouds below 12,000 feet with no
significant weather and/or obstructions to visibility. * = Denotes
station may not report precipitation (e.g., rain,snow,etc.),
thunder or fog.

VAZ042-051-052>054-056-190600-
NORTHERN VIRGINIA

CITY           SKY/WX    TMP DP  RH WIND       PRES   REMARKS
WASH NATIONAL  CLOUDY    78  77  96 S7        29.87R
DULLES         CLOUDY    76  76 100 S3        29.88R
FORT BELVOIR   FAIR      75  75 100 CALM      29.86S
QUANTICO       CLOUDY    78  75  90 W5        29.87S
FREDERICKSBRG* DRIZZLE   76  76 100 S7        29.86F
STAFFORD*      MOCLDY    74  74 100 S3        29.92S
WARRENTON      CLOUDY    77  73  88 W6        29.89R
CULPEPER*      LGT RAIN  77  76  98 NW5       29.90S
MANASSAS*      LGT RAIN  77  75  93 S6        29.88R
LEESBURG*      CLOUDY    77  77 100 CALM      29.89R
WINCHESTER     CLOUDY    72  68  88 W5        29.91R
FRONT ROYAL*   CLOUDY    73  72  94 SW3       29.90R
LURAY*         CLOUDY    73  73 100 CALM      29.93R
$$

VAZ048-049-060>072-079>083-190600-
CENTRAL AND SOUTH CENTRAL VIRGINIA

CITY           SKY/WX    TMP DP  RH WIND       PRES   REMARKS
RICHMOND       TSTM      74  74 100 SW5       29.88F
CHESTERFIELD*  CLOUDY    74  73  97 CALM      29.89F
PETERSBURG*    MOCLDY    73  73 100 CALM      29.89F
HANOVER        LGT RAIN  75  72  90 S9        29.89F
TAPPAHANNOCK*  FAIR     N/A N/A N/A E3        29.88F
QUINTON*       CLOUDY   N/A N/A N/A S7        29.88F
CHARLOTTSVILLE CLOUDY    79  75  87 CALM      29.90R
GORDONSVILLE*  CLOUDY    77  76  99 CALM      29.89F
ORANGE*        LGT RAIN  75  73  94 CALM      29.89F
LOUISA*        CLOUDY    75  73  94 CALM      29.89S
BUMPASS*       CLOUDY    75  75 100 CALM      29.89F
FARMVILLE*     CLOUDY    76  75  95 CALM      29.88F
CREWE*         CLOUDY    75  71  87 CALM      29.90F
FORT PICKETT*  CLOUDY   N/A N/A N/A CALM      29.91F
CHASE CITY*    CLOUDY    75  75  99 CALM      29.91S
CLARKSVILLE*   CLOUDY    73  73 100 CALM      29.92R
SOUTH HILL*    CLOUDY    76  76 100 CALM      29.98R
LAWRENCEVILLE* CLOUDY    75  74  97 S3        29.91R
EMPORIA*         N/A     73  73 100 N3        29.92S
$$

VAZ088>098-190600-
SOUTHEAST VIRGINIA

CITY           SKY/WX    TMP DP  RH WIND       PRES   REMARKS
NORFOLK        RAIN      79  74  84 NW9G22    29.92R
VIRGINIA BEACH MOCLDY    82  75  79 VRB3      29.88S
NORFOLK NAVAL  TSTM      78  72  81 W21G30    29.94R
WEST POINT*    MOCLDY    75  73  94 S5        29.89S
SALUDA*        MOCLDY    73  73 100 CALM      29.87F
NEWPORT NEWS   TSTM      75  73  93 S5        29.91R FOG
LANGLEY AFB    TSTM      75  73  94 W13       29.91R VSB 1
FORT EUSTIS    TSTM      76  73  92 S3        29.89S
WILLIAMSBURG*  MOCLDY    75  75 100 CALM      29.91F
HR EXEC AP*    CLOUDY    77  72  83 NW7G23    29.92R THUNDER
FRANKLIN*      CLOUDY    74  71  92 CALM      29.90F
US460-WAKEFLD  TSTM      73  73 100 N3        29.90F FOG
$$

VAZ020-022-025-037-045-190600-
WEST CENTRAL AND SOUTHWEST VIRGINIA

CITY           SKY/WX    TMP DP  RH WIND       PRES   REMARKS
STAUNTON*      MOCLDY    73  69  88 CALM      29.96R
WAYNESBORO*    CLOUDY    75  68  78 SW6       29.96R
HOT SPRINGS VA FAIR      64  63  94 W9        30.10R
LYNCHBURG      CLOUDY    74  67  78 CALM      29.94R
DANVILLE       CLOUDY    77  72  84 W3        29.93R
SOUTH BOSTON*  CLOUDY    76  74  95 CALM      29.92R
MARTINSVILLE   CLOUDY    71  71  98 CALM      29.99R FOG
ROANOKE        FAIR      73  67  81 NW6       29.99R
BLACKSBURG     FAIR      66  66  99 CALM      30.07R
DUBLIN*        FAIR      69  66  90 SW6       30.06R
MARION*        FAIR      68  58  72 CALM      30.10R
HILLSVILLE*    FAIR      68  62  81 CALM      30.06R
RICHLANDS*     FAIR      68  59  72 CALM      30.09S
WISE*          FAIR      66  64  94 CALM      30.10R
ABINGDON*      MOCLDY    69  67  92 CALM      30.06S
$$

MDZ021>025-VAZ099-100-190600-
SOUTHERN MARYLAND AND THE DELMARVA PENINSULA

CITY           SKY/WX    TMP DP  RH WIND       PRES   REMARKS
PATUXENT RIVER FAIR      75  74  96 SW8       29.86R
BAY BRIDGE APT MOCLDY    75  75 100 S5        29.85R
LEONARDTOWN    FAIR      73  72  94 SW6       29.89F
DOVER          CLEAR     73  73 100 SW9       29.82S
GEORGETOWN     FAIR      74  72  93 SW7       29.86R
EASTON         FAIR     N/A N/A N/A SW5       29.89S
CAMBRIDGE      PTCLDY    73  72  94 CALM      29.85S
SALISBURY      FAIR      73  73 100 SW3       29.85R
OCEAN CITY     FAIR      75  73  93 S8        29.86S
WALLOPS ISLAND FAIR      74  74 100 S8        29.87R
ACCOMACK*      FAIR      73  72  98 CALM      29.87F
$$

NCZ012>017-030>032-190600-
NORTH CENTRAL AND EASTERN NORTH CAROLINA

CITY           SKY/WX    TMP DP  RH WIND       PRES   REMARKS
ROANOKE RAPIDS LGT RAIN  79  77  94 NW3       29.92R
RALEIGH        TSTM      79  75  87 W8        29.94R
ELIZABETH CITY FAIR      82  80  94 S10       29.89F
AHOSKIE*         N/A     80  78  94 CALM      29.91R
EDENTON*       FAIR      83  79  87 S3        29.91S
CURRITUCK*     FAIR      82  77  87 S5        29.89F
KILL DEVIL HLS MOCLDY    82  78  88 SW3       29.90F
MANTEO         FAIR      82  79  91 SW12      29.92S
CAPE HATTERAS  FAIR      84  82  94 SW12      29.94S HX 100
TARBORO*       NOT AVBL
GOLDSBORO      CLEAR     81  81 100 SW6       29.90S
WASHINGTON     FAIR      81  77  88 S5        29.91S
GREENVILLE     FAIR      81  77  89 SW8       29.93S
NEW BERN       FAIR      80  79  96 SW7       29.94R
WILMINGTON     FAIR      83  79  88 SW8       29.94R
$$

VAZ048-190600-
ELSEWHERE

CITY           SKY/WX    TMP DP  RH WIND       PRES   REMARKS
HARRISBURG PA  MOCLDY    77  75  93 NW5       29.83S
BALTIMORE      MOCLDY    75  75 100 SW6       29.85S
ANNAPOLIS      FAIR      77  77 100 CALM      29.84S
ANDREWS AFB    FAIR      75  74  95 SW8       29.86R
PHILADELPHIA   CLOUDY    76  73  91 SW13      29.83S
HENDERSON NC   FAIR      73  72  96 CALM      29.93S
GREENSBORO     MOCLDY    78  72  81 NW8       29.95R
ROCKY MOUNT    MOCLDY    82  76  81 VRB3      29.92R
$$

VAZ100-190600-
MARINE

STATION/POSITION TIME  TEMP    WIND        PRES    WAVE   SWELL
                       AIR SEA DIR/SP/G            HT/PER HT/PER
                 (UTC) (F)     (DEG/KT/KT) (MB)    (FT/S) (FT/S)
BRANDYWINE LGT   0442   76     250/ 17/ 20 1010.4R
CAPE MAY NJ      0436   75 79  210/  5/  7 1009.5F
LEWES DE         0442   73 77  260/  5/  7 1010.1R
15NM E FENWICK I 0450   76 78  180/ 10/ 12 1011.0F   3/ 5   2/ 5
OCEAN-CITY-INLET 0442   75 77  200/  7/ 10 1011.4F
WACHAPREAGUE VA  0442   76 85  230/  4/  8 1011.8R
THOMAS POINT MD  0500   76 80  230/  8/  9   N/A
GOOSES REEF MD   0500   78 80  220/ 12/ 14 1011.3    1
COVE POINT MD    0442   76     230/  8/ 11 1011.6F
SOLOMONS ISLAND  0442   76 81  210/  7/  8   N/A
BISHOPS HEAD MD  0442   78 83  210/ 11/ 12 1011.0R
PINEY POINT MD   0442          240/  8/ 10   N/A
POTOMAC MD       0500   78 82              1010.3    1
CAMBRIDGE MD     0442   73 82              1011.6F
LEWISETTA VA     0442   76 82  270/  8/ 10 1011.0R
RAPPAHANNOCK LGT 0442          180/  5/  6 1012.1F
STINGRAY PT      0500   77 82  240/  4/  8 1011.7    0
YORK RVR RNG VA  0442   79     230/  6/  9 1012.4F
YORKTOWN VA      0442   77 82  250/  9/ 14 1012.1F
JAMESTOWN VA     0500      84  190/  6/  8   N/A
DOMINION TERM VA 0442   78     310/ 20/ 29 1013.0R
KIPTOPEKE VA     0442      81  100/  2/  2   N/A
CHES BAY BRIDGE  0442   80 80  200/  3/  4 1011.7F
CAPE HENRY VA    0442   79     200/  1/  5   N/A
WILLOUBY STN VA  0442   78     300/ 14/ 20 1013.2R
S CRANEY ISL VA  0442   83     290/ 11/ 17 1011.7F
CAPE HENRY BUOY  0500      79                N/A     2/ 8
1ST LANDING BUOY 0500   79 79              1011.7    1/ 3
64NM E OF VA BCH 0450   80 77  210/ 14/ 16 1012.4F   3/ 5   2/ 8
DUCK PIER NC     0442   83 73  200/ 13/ 19 1012.0S
44100 DUCK FRF   0405      80                N/A     3/ 4
44056 DUCK FRF   0500      78                N/A     2/ 8
OREGON INLET NC  0442   83 80  210/ 16/ 19 1012.9S
HATTERAS NC      0442   82 84  220/  9/ 13 1013.5F
DIAMOND SHLS NC  0450   85 85  220/ 19/ 23 1013.6F   5/ 6   2/ 8
CAPE LOOKOUT NC  0500   83     220/ 12/ 17 1013.7S
$$




USA.gov is the U.S. government's official web portal to all federal, state and local government web resources and services.